Location: Unspecified
(19.4326°N, 99.1332°W)
Time: 14:33:25
(UTC-05:00)

ISS - Visible Passes

Search period start: 21 September 2017 00:00
Search period end: 01 October 2017 00:00
Orbit: 401 x 407 km, 51.6° (Epoch: 22 September)

Date Brightness Start Highest point End Pass type
(mag) Time Alt. Az. Time Alt. Az. Time Alt. Az.
21 Sep -3.7 20:38:01 10° SSW 20:41:10 48° SE 20:41:21 47° ESE visible
22 Sep -3.5 06:27:10 10° NNW 06:30:25 65° NE 06:33:38 10° SE visible
22 Sep -1.1 21:23:05 10° W 21:25:18 17° NW 21:25:18 17° NW visible
23 Sep -1.6 05:38:22 25° ENE 05:38:22 25° ENE 05:40:51 10° ESE visible
23 Sep -2.5 20:29:52 10° WSW 20:32:56 39° NW 20:36:01 10° NNE visible
24 Sep -2.9 06:22:26 29° SW 06:22:26 29° SW 06:25:02 10° S visible
25 Sep -0.8 20:23:11 10° WNW 20:24:48 13° NW 20:26:25 10° NNW visible
